Miscellaneous Local Product
Issued by NWS Hastings, NE

Home | Current Version | Previous Version | Text Only | Print | Product List | Glossary On
Versions: 1 2 3 4 5 6 7 8 9 10 11 12 13 14 15 16 17 18 19 20 21 22 23 24 25 26 27 28 29 30 31 32 33 34 35 36 37 38 39 40 41 42 43 44 45 46 47 48 49 50
000
AXUS43 KGID 080202
MISGRI

GID CWA HOURLY WEATHER ROUNDUP
NATIONAL WEATHER SERVICE HASTINGS NE
900 PM CDT TUE JUL 07 2015

NOTE: "FAIR" INDICATES FEW OR NO CLOUDS BELOW 12,000 FEET WITH NO
SIGNIFICANT WEATHER AND/OR OBSTRUCTIONS TO VISIBILITY.

...SOUTH CENTRAL NEBRASKA...

CITY           SKY/WX    TMP DP  RH WIND       PRES   REMARKS
GRAND ISLAND   MOCLDY    64  53  67 E6        30.10F
HASTINGS       MOCLDY    65  52  62 E7        30.10S
KEARNEY        MOCLDY    63  54  72 E7        30.10S
ORD            PTCLDY    66  52  60 E5        30.08F
YORK           PTCLDY    63  54  72 CALM      30.10S
AURORA         PTCLDY    63  56  78 E5        30.10S
LEXINGTON      PTCLDY    67  55  64 S8        30.10S
HOLDREGE       PTCLDY    67  54  64 E5        30.10S
HEBRON         CLEAR     66  51  58 E3        30.08F

...NEBRASKA PANHANDLE...

CITY           SKY/WX    TMP DP  RH WIND       PRES   REMARKS
CHADRON        MOCLDY    68  51  54 S12       30.02F
ALLIANCE       CLOUDY    66  50  56 SE13      30.07F
SCOTTSBLUFF    CLOUDY    66  51  58 SE14      30.06S
SIDNEY         CLOUDY    68  48  48 SE15G22   30.11R

...WESTERN AND NORTH CENTRAL NEBRASKA...

CITY           SKY/WX    TMP DP  RH WIND       PRES   REMARKS
VALENTINE      PTCLDY    68  55  63 SE7       30.07F
AINSWORTH      PTCLDY    65  56  72 SE6       30.09S
ONEILL         PTCLDY    66  50  55 SE6       30.11S
BROKEN BOW     PTCLDY    65  54  67 E6        30.09F
IMPERIAL       CLOUDY    69  48  47 SE13      30.10S
NORTH PLATTE   CLOUDY    68  53  58 SE6       30.09F
MCCOOK         MOCLDY    69  52  54 E7        30.09F

...EASTERN NEBRASKA...

CITY           SKY/WX    TMP DP  RH WIND       PRES   REMARKS
NORFOLK        MOCLDY    64  52  64 E5        30.09F
SO SIOUX CITY  PTCLDY    67  50  54 E3        30.10S
TEKAMAH        PTCLDY    66  54  65 NE5       30.08F
ALBION         MOCLDY    66  49  55 E5        30.10F
OMAHA EPPLEY   MOCLDY    67  54  63 NE5       30.08S
OFFUTT AFB     PTCLDY    65  53  66 NE3       30.07S
MILLARD        PTCLDY    68  53  58 CALM      30.08S
LINCOLN        CLEAR     63  54  72 NE6       30.09S
NEBRASKA CITY  MOCLDY    66  48  51 CALM      30.08R
BEATRICE       CLEAR     66  53  62 NE5       30.09R
FALLS CITY     CLOUDY    67  57  70 N3        30.06R

...NORTHERN KANSAS...

CITY           SKY/WX    TMP DP  RH WIND       PRES   REMARKS
GOODLAND       PTCLDY    66  46  48 SE7       30.11S
HILL CITY      PTCLDY    70  49  47 E7        30.09S
NORTON         CLEAR     68  46  45 E6        30.09S
PHILLIPSBURG   CLEAR     70  48  46 E6        30.09S
SMITH CENTER   CLEAR     63  50  63 NE7       30.10S
HAYS           CLEAR     72  45  37 E8        30.07S
RUSSELL        CLEAR     67  51  56 NE7       30.06S
CONCORDIA      CLEAR     65  50  58 E5        30.08R
SALINA         MOCLDY    70  52  52 E6        30.07R
TOPEKA         CLOUDY    68  61  78 NE3       30.05S



USA.gov is the U.S. government's official web portal to all federal, state and local government web resources and services.